Location: Newark
(23.1300°N, 73.6109°E)
Time: 05:30:20
(UTC+00:00)

Hubble Space Telescope - Pass Details

Date: 31 July 2021
Orbit: 535 x 539 km, 28.5° (Epoch: 19 September)

Event Time Altitude Azimuth Distance (km) Brightness Sun altitude
Rises 14:37:54 0° 289° (WNW) 2,670 6.4 -11.4°
Reaches altitude 10° 14:40:13 10° 295° (WNW) 1,778 5.0 -11.9°
Maximum altitude 14:44:13 49° 11° (N) 687 1.4 -12.7°
Enters shadow 14:47:14 16° 82° (E) 1,413 2.4 -13.3°
